sat.trackr.live / text

‹ back to catalog

STARLINK-37102

NORAD 68183 · 2026-050S

PAYLOAD ACTIVE UNKNOWN

§ Identity

Operator
Country
US
Launch date
2026-03-14
Launch site
AFETR
Launch vehicle
Mass (kg)
RCS (m²)

Purposes: comms

External: N2YO · Heavens-Above · Gunter

§ Orbital elements

Epoch: 2026-05-24T15:25:36.183360Z

Period
93.58 min
Inclination
53.1567°
Eccentricity
0.0001588
Mean motion
15.38839895 rev/d
Perigee alt
448.5 km
Apogee alt
450.6 km
Semi-major
6,827.7 km
B*
2.8351e-4
RAAN
273.8381°
Arg perigee
83.9731°
Mean anomaly
276.1455°
Rev number
1,231

§ Raw data

STARLINK-371021 68183U 26050S   26144.64277990  .00010673  00000+0  28351-3 0  99982 68183  53.1567 273.8381 0001588  83.9731 276.1455 15.38839895 12316

JSON: /api/v1/satellites/68183 · /tle

For live sub-satellite position, see the globe view (requires WebGL).

§ Visibility from observer

Set your observer location to see the next 7 days of passes ≥ 10°. The values pass through the URL so the page stays shareable.

No JS? Fill the form by hand. The geolocation button needs JavaScript.